| time (UTC) | temp F | wind direction | speed MPH | gust MPH | rain 1hr in | rain 24hr in | rain mn in | humidity % | barometer mb |
| 20260509001554 | 50 | 207 | 0.0 | 1.0 | 0.00 | 0.13 | 0.00 | 98 | 1013.2 |
| 20260509000052 | 50 | 229 | 0.0 | 1.0 | 0.00 | 0.13 | 0.00 | 97 | 1013.2 |
| 20260508234549 | 50 | 165 | 0.0 | 0.0 | 0.00 | 0.13 | 0.00 | 97 | 1013.1 |
| 20260508233052 | 51 | 155 | 0.0 | 2.0 | 0.00 | 0.13 | 0.00 | 97 | 1013.3 |
| 20260508231547 | 52 | 51 | 0.0 | 1.0 | 0.00 | 0.13 | 0.00 | 97 | 1013.3 |
| 20260508230109 | 52 | 53 | 0.0 | 0.0 | 0.00 | 0.13 | 0.00 | 97 | 1013.2 |
| 20260508224605 | 52 | 53 | 0.0 | 0.0 | 0.00 | 0.13 | 0.00 | 97 | 1013.2 |
| 20260508223103 | 52 | 53 | 0.0 | 0.0 | 0.00 | 0.13 | 0.00 | 96 | 1013.2 |
| 20260508221551 | 53 | 53 | 0.0 | 0.0 | 0.00 | 0.13 | 0.00 | 96 | 1013.3 |
| 20260508220106 | 54 | 53 | 0.0 | 0.0 | 0.00 | 0.13 | 0.00 | 95 | 1013.4 |
| 20260508214606 | 54 | 53 | 0.0 | 0.0 | 0.00 | 0.13 | 0.13 | 95 | 1013.5 |
| 20260508213050 | 54 | 142 | 0.0 | 1.0 | 0.00 | 0.13 | 0.13 | 96 | 1013.4 |
| 20260508211601 | 55 | 247 | 0.0 | 0.0 | 0.00 | 0.13 | 0.13 | 96 | 1013.2 |
| 20260508210055 | 55 | 247 | 0.0 | 0.0 | 0.00 | 0.13 | 0.13 | 96 | 1013.2 |
| 20260508204552 | 55 | 247 | 0.0 | 0.0 | 0.00 | 0.13 | 0.13 | 96 | 1013.2 |
| 20260508203059 | 56 | 247 | 0.0 | 1.0 | 0.00 | 0.13 | 0.13 | 95 | 1013.2 |
| 20260508201559 | 56 | 176 | 0.0 | 0.0 | 0.00 | 0.13 | 0.13 | 95 | 1013.1 |
| 20260508200008 | 56 | 99 | 0.0 | 2.0 | 0.00 | 0.13 | 0.13 | 94 | 1013.1 |
| 20260508194626 | 56 | 143 | 0.0 | 1.0 | 0.00 | 0.13 | 0.13 | 94 | 1012.9 |
| 20260508193108 | 56 | 143 | 0.0 | 0.0 | 0.00 | 0.13 | 0.13 | 93 | 1012.7 |
| 20260508191552 | 56 | 143 | 0.0 | 1.0 | 0.00 | 0.13 | 0.13 | 92 | 1012.6 |
| 20260508190107 | 57 | 39 | 0.0 | 1.0 | 0.00 | 0.13 | 0.13 | 91 | 1012.2 |
| 20260508184602 | 58 | 59 | 0.0 | 0.0 | 0.05 | 0.13 | 0.13 | 87 | 1011.8 |
| 20260508183047 | 58 | 59 | 0.0 | 3.0 | 0.13 | 0.13 | 0.13 | 85 | 1011.7 |
| 20260508181503 | 59 | 219 | 0.0 | 2.0 | 0.13 | 0.13 | 0.13 | 89 | 1011.7 |
| 20260508180111 | 60 | 317 | 0.0 | 4.0 | 0.13 | 0.13 | 0.13 | 84 | 1011.1 |
| 20260508174605 | 65 | 254 | 0.0 | 5.0 | 0.06 | 0.06 | 0.06 | 73 | 1011.2 |
| 20260508173103 | 69 | 327 | 0.0 | 8.0 | 0.00 | 0.00 | 0.00 | 60 | 1011.1 |
| 20260508171554 | 70 | 46 | 2.0 | 5.0 | 0.00 | 0.00 | 0.00 | 57 | 1010.7 |
| 20260508170053 | 72 | 54 | 1.0 | 4.0 | 0.00 | 0.00 | 0.00 | 55 | 1010.6 |
| 20260508164548 | 71 | 63 | 1.0 | 5.0 | 0.00 | 0.00 | 0.00 | 55 | 1010.7 |
| 20260508163106 | 72 | 58 | 2.0 | 8.0 | 0.00 | 0.00 | 0.00 | 55 | 1010.6 |
| 20260508161551 | 72 | 59 | 1.0 | 8.0 | 0.00 | 0.00 | 0.00 | 54 | 1010.5 |
| 20260508154558 | 72 | 53 | 2.0 | 5.0 | 0.00 | 0.00 | 0.00 | 55 | 1010.5 |
| 20260508153056 | 73 | 88 | 1.0 | 5.0 | 0.00 | 0.00 | 0.00 | 54 | 1010.8 |
| 20260508151544 | 72 | 56 | 2.0 | 6.0 | 0.00 | 0.00 | 0.00 | 51 | 1010.8 |
| 20260508150059 | 74 | 47 | 2.0 | 5.0 | 0.00 | 0.00 | 0.00 | 50 | 1010.8 |
| 20260508144606 | 73 | 314 | 0.0 | 3.0 | 0.00 | 0.00 | 0.00 | 56 | 1010.9 |
| 20260508143057 | 72 | 236 | 0.0 | 1.0 | 0.00 | 0.00 | 0.00 | 54 | 1011.0 |
| 20260508141554 | 74 | 51 | 2.0 | 4.0 | 0.00 | 0.00 | 0.00 | 48 | 1011.1 |
| 20260508140057 | 75 | 237 | 3.0 | 6.0 | 0.00 | 0.00 | 0.00 | 56 | 1011.2 |
| 20260508134553 | 73 | 44 | 2.0 | 4.0 | 0.00 | 0.00 | 0.00 | 48 | 1011.1 |
| 20260508133135 | 73 | 239 | 1.0 | 4.0 | 0.00 | 0.00 | 0.00 | 52 | 1011.3 |
| 20260508131557 | 74 | 6 | 2.0 | 9.0 | 0.00 | 0.00 | 0.00 | 53 | 1011.0 |
| 20260508130107 | 72 | 360 | 0.0 | 3.0 | 0.00 | 0.00 | 0.00 | 54 | 1011.3 |
| 20260508124558 | 72 | 178 | 1.0 | 5.0 | 0.00 | 0.00 | 0.00 | 54 | 1011.4 |
| 20260508123106 | 72 | 79 | 1.0 | 5.0 | 0.00 | 0.00 | 0.00 | 57 | 1011.3 |
| 20260508121557 | 72 | 104 | 1.0 | 5.0 | 0.00 | 0.00 | 0.00 | 59 | 1011.5 |
| 20260508114603 | 71 | 72 | 0.0 | 7.0 | 0.00 | 0.00 | 0.00 | 60 | 1011.8 |
| 20260508113050 | 70 | 41 | 2.0 | 6.0 | 0.00 | 0.00 | 0.00 | 65 | 1011.9 |
| 20260508111558 | 69 | 325 | 0.0 | 4.0 | 0.00 | 0.00 | 0.00 | 67 | 1011.9 |
| 20260508104557 | 69 | 62 | 2.0 | 7.0 | 0.00 | 0.00 | 0.00 | 70 | 1012.2 |
| 20260508103106 | 68 | 57 | 0.0 | 5.0 | 0.00 | 0.00 | 0.00 | 69 | 1012.4 |
| 20260508101551 | 67 | 69 | 2.0 | 4.0 | 0.00 | 0.00 | 0.00 | 69 | 1012.6 |
| 20260508100050 | 67 | 57 | 2.0 | 6.0 | 0.00 | 0.00 | 0.00 | 70 | 1012.8 |
| 20260508094608 | 66 | 39 | 2.0 | 5.0 | 0.00 | 0.00 | 0.00 | 70 | 1012.9 |
| 20260508093052 | 65 | 18 | 0.0 | 2.0 | 0.00 | 0.00 | 0.00 | 74 | 1012.9 |
| 20260508091545 | 62 | 332 | 0.0 | 1.0 | 0.00 | 0.00 | 0.00 | 76 | 1013.0 |
| 20260508090054 | 63 | 35 | 0.0 | 2.0 | 0.00 | 0.00 | 0.00 | 75 | 1012.8 |
| 20260508084556 | 64 | 60 | 1.0 | 4.0 | 0.00 | 0.00 | 0.00 | 75 | 1012.8 |
| 20260508083102 | 63 | 299 | 0.0 | 4.0 | 0.00 | 0.00 | 0.00 | 75 | 1012.8 |
| 20260508081559 | 62 | 56 | 0.0 | 4.0 | 0.00 | 0.00 | 0.00 | 76 | 1012.8 |
| 20260508080050 | 61 | 68 | 0.0 | 3.0 | 0.00 | 0.00 | 0.00 | 78 | 1012.9 |
| 20260508074559 | 60 | 239 | 0.0 | 1.0 | 0.00 | 0.00 | 0.00 | 80 | 1013.1 |
| 20260508073053 | 58 | 219 | 0.0 | 2.0 | 0.00 | 0.00 | 0.00 | 83 | 1013.1 |
| 20260508071545 | 56 | 223 | 0.0 | 2.0 | 0.00 | 0.00 | 0.00 | 85 | 1013.2 |
| 20260508070108 | 54 | 212 | 0.0 | 3.0 | 0.00 | 0.00 | 0.00 | 90 | 1013.1 |
| 20260508064549 | 52 | 134 | 0.0 | 0.0 | 0.00 | 0.00 | 0.00 | 94 | 1013.1 |
| 20260508063055 | 50 | 244 | 0.0 | 1.0 | 0.00 | 0.00 | 0.00 | 96 | 1013.0 |
| 20260508061601 | 49 | 93 | 0.0 | 0.0 | 0.00 | 0.00 | 0.00 | 96 | 1012.9 |
| 20260508060055 | 46 | 94 | 0.0 | 0.0 | 0.00 | 0.00 | 0.00 | 97 | 1012.9 |
| 20260508054600 | 45 | 94 | 0.0 | 0.0 | 0.00 | 0.00 | 0.00 | 96 | 1012.7 |
| 20260508053054 | 45 | 29 | 0.0 | 0.0 | 0.00 | 0.00 | 0.00 | 96 | 1012.5 |
| 20260508051553 | 45 | 29 | 0.0 | 0.0 | 0.00 | 0.00 | 0.00 | 96 | 1012.6 |
| 20260508050059 | 45 | 29 | 0.0 | 0.0 | 0.00 | 0.00 | 0.00 | 95 | 1012.5 |
| 20260508044603 | 45 | 28 | 0.0 | 0.0 | 0.00 | 0.00 | 0.00 | 95 | 1012.4 |
| 20260508043057 | 46 | 28 | 0.0 | 0.0 | 0.00 | 0.00 | 0.00 | 94 | 1012.3 |
| 20260508041547 | 47 | 29 | 0.0 | 0.0 | 0.00 | 0.00 | 0.00 | 93 | 1012.4 |
| 20260508040056 | 47 | 29 | 0.0 | 0.0 | 0.00 | 0.00 | 0.00 | 93 | 1012.3 |
| 20260508034557 | 48 | 28 | 0.0 | 0.0 | 0.00 | 0.00 | 0.00 | 93 | 1012.4 |
| 20260508033057 | 48 | 27 | 0.0 | 0.0 | 0.00 | 0.00 | 0.00 | 92 | 1012.5 |
| 20260508031545 | 49 | 27 | 0.0 | 0.0 | 0.00 | 0.00 | 0.00 | 92 | 1012.6 |
| 20260508030103 | 49 | 27 | 0.0 | 0.0 | 0.00 | 0.00 | 0.00 | 92 | 1012.6 |
| 20260508024553 | 49 | 39 | 0.0 | 0.0 | 0.00 | 0.01 | 0.00 | 92 | 1012.6 |
| 20260508023049 | 48 | 39 | 0.0 | 0.0 | 0.00 | 0.01 | 0.00 | 91 | 1012.5 |
| 20260508021604 | 48 | 39 | 0.0 | 0.0 | 0.00 | 0.01 | 0.00 | 91 | 1012.5 |
| 20260508020053 | 48 | 39 | 0.0 | 0.0 | 0.00 | 0.01 | 0.00 | 91 | 1012.6 |
| 20260508014548 | 48 | 39 | 0.0 | 0.0 | 0.00 | 0.01 | 0.00 | 91 | 1012.7 |
| 20260508013054 | 48 | 39 | 0.0 | 0.0 | 0.00 | 0.01 | 0.00 | 91 | 1012.7 |
| 20260508011609 | 48 | 39 | 0.0 | 0.0 | 0.00 | 0.01 | 0.00 | 90 | 1012.8 |
| 20260508010059 | 48 | 39 | 0.0 | 0.0 | 0.00 | 0.01 | 0.00 | 90 | 1012.9 |
| 20260508004558 | 48 | 39 | 0.0 | 1.0 | 0.00 | 0.01 | 0.00 | 90 | 1012.9 |
| 20260508003102 | 48 | 39 | 0.0 | 0.0 | 0.00 | 0.01 | 0.00 | 90 | 1013.0 |